SCP
0 0 0 0 0 0 0 0 0 0 0 0 0 0 0 1 1 2 2 2 1 2 2 1 1 2 1 1 0 0 0 0 0 0 0 0 0 0 0 0 0 0 0
0 0 0 0 0 0 0 0 0 0 0 0 0 0 0 0 0 1 1 1 1 1 1 1 1 1 2 1 1 0 0 0 0 0 0 0 0 0 0 0 0 0 0
0 0 0 0 0 0 0 0 0 0 0 0 0 0 0 0 0 0 0 0 0 1 1 1 1 1 1 1 1 1 1 1 0 0 0 0 0 0 0 0 0 0 0
0 0 0 0 0 0 0 0 0 0 0 0 0 0 0 0 0 0 0 0 0 0 0 0 1 1 1 1 1 1 1 1 0 0 0 0 0 0 0 0 0 0 0
0 0 0 0 0 0 0 0 0 0 0 0 0 0 0 0 0 0 0 0 0 0 0 0 0 0 0 0 0 0 0 0 0 0 0 0 0 0 0 0 0 0 -0
0 0 0 0 0 0 0 0 0 0 0 0 0 0 0 0 0 0 0 0 0 0 0 0 0 0 0 0 0 0 0 0 0 0 0 0 0 0 0 0 0 0 -0
0 0 0 0 0 0 0 0 0 0 0 0 0 0 0 0 0 0 0 0 0 0 0 0 0 0 0 0 0 0 0 0 0 0 0 0 0 0 0 0 0 0 -0
0 0 0 0 0 0 0 0 0 0 0 0 0 0 0 0 0 0 0 0 0 0 0 0 0 0 0 0 0 0 0 0 0 0 0 0 0 0 0 0 0 -0 -0
0 0 0 0 0 0 0 0 0 0 0 0 0 0 0 0 0 0 0 0 0 0 0 0 0 0 0 0 0 0 0 0 0 0 0 0 0 0 0 0 0 0 0
0 0 0 0 0 0 0 0 0 0 0 0 0 0 0 0 0 0 0 0 0 0 0 0 0 0 0 0 0 0 0 0 0 -0 -0 0 0 0 0 0 0 0 0
0 0 0 0 0 0 0 0 0 0 0 0 0 0 0 0 0 0 0 0 0 0 0 0 0 0 0 0 0 0 0 0 0 0 0 0 0 0 0 0 0 0 0
0 0 0 0 0 0 0 0 0 0 0 0 0 0 0 0 0 0 0 0 0 0 0 0 0 0 0 0 0 0 0 0 0 0 0 0 0 0 0 0 0 0 0
0 0 0 0 0 0 0 0 0 0 0 0 0 0 0 0 0 0 0 0 0 0 0 0 0 0 0 0 0 0 0 0 0 0 0 0 0 0 0 0 0 0 0
0 0 0 0 0 0 0 0 0 0 0 0 0 0 0 0 0 0 0 0 0 0 0 0 0 0 0 0 0 0 0 0 0 0 0 0 0 0 0 0 0 0 0
-0 -0 -0 0 0 0 0 0 0 0 0 0 0 0 0 0 0 0 0 0 0 0 0 0 0 0 0 0 0 0 0 0 0 0 0 0 0 0 0 0 0 0 0
-0 0 0 0 0 0 0 0 0 0 0 0 0 0 0 0 0 0 0 0 0 0 0 0 -0 0 0 0 0 -0 -0 0 0 0 0 0 0 0 0 0 0 0 0
-0 0 0 0 0 0 0 0 0 0 0 0 0 0 0 0 0 0 0 0 0 0 0 0 -0 -0 0 0 0 -0 0 0 0 0 0 0 0 0 0 0 0 0 0
0 0 0 0 0 0 0 0 0 0 0 0 0 0 0 0 0 0 0 0 0 0 0 -0 -0 0 0 0 0 0 0 0 0 0 0 0 0 0 0 0 0 0 0
0 0 0 0 0 0 0 0 0 0 0 0 0 0 0 0 0 0 0 0 -0 -0 -0 0 0 0 0 0 0 0 0 0 0 0 0 0 0 0 0 0 0 0 -0
0 0 0 0 0 0 0 0 0 0 0 0 0 0 0 0 0 0 0 0 0 0 0 0 0 0 0 0 0 0 0 0 0 -0 0 -0 0 0 0 0 0 0 0
0 0 0 0 0 0 0 0 0 0 0 0 0 0 0 0 0 0 0 0 0 0 0 0 0 0 0 0 0 0 -0 -0 -0 -0 0 -0 -0 -0 -0 -0 0 0 -0
0 0 0 0 0 0 0 0 0 0 0 0 0 0 0 0 0 0 0 0 0 0 0 0 0 0 0 0 0 0 -0 -0 -0 -0 0 0 0 0 -0 0 0 -0 -0
0 0 0 0 0 0 0 0 0 0 0 0 0 0 0 0 0 0 0 0 0 0 0 0 0 0 0 0 0 0 0 0 0 0 0 0 -0 -0 -0 0 0 0 0
0 0 0 0 0 0 0 0 0 0 0 0 0 0 0 0 0 0 0 0 0 0 0 0 0 0 -0 0 0 0 0 0 0 0 0 0 -0 0 -0 0 0 0 0
0 0 0 0 0 0 0 0 0 0 0 0 0 0 0 0 0 -0 -0 0 0 0 0 0 0 0 0 0 0 0 0 0 0 0 0 -0 -0 0 0 0 0 0 0
0 0 0 0 0 0 0 0 0 0 0 0 0 0 0 0 -0 -0 -0 -0 0 0 0 0 0 0 0 -0 0 0 0 -0 0 -0 -0 0 0 0 0 0 0 0 0
Wind_Speed_500mb
12 15 17 25 26 26 31 34 34 38 42 45 48 50 53 52 54 63 68 71 71 70 66 68 71 70 69 65 64 63 65 65 66 55 49 55 59 66 72 60 63 59 52
16 20 23 27 28 32 38 41 42 45 48 51 52 53 54 56 55 58 63 70 77 83 86 87 85 80 81 79 83 85 82 77 75 84 75 68 62 51 43 44 46 60 63
23 27 31 34 38 42 45 48 51 55 57 58 59 60 62 63 65 64 65 69 71 72 77 82 87 85 84 82 86 81 73 71 73 74 69 49 57 61 71 76 71 49 53
31 37 41 44 48 53 57 56 54 53 55 56 58 61 61 62 62 63 65 68 71 74 74 74 72 76 88 91 89 86 90 88 87 84 83 80 75 74 63 60 52 50 51
39 43 46 51 52 53 56 59 62 63 65 65 67 67 67 67 66 65 67 73 77 80 80 80 77 70 73 72 75 87 90 87 83 78 78 71 68 71 61 43 48 54 62
45 50 51 56 58 57 59 61 62 62 59 58 60 63 67 68 66 73 80 85 87 88 92 97 98 96 91 86 81 76 78 86 86 82 76 71 68 56 54 51 51 60 73
49 52 55 56 58 58 58 57 57 58 61 66 70 68 67 70 76 83 88 92 96 99 102 104 105 102 98 92 97 91 76 72 81 94 96 86 79 82 82 66 61 66 79
53 55 56 57 58 58 61 63 63 65 69 77 81 84 85 93 102 101 95 99 103 104 104 105 104 107 106 106 104 104 97 94 78 67 77 99 99 93 82 72 72 71 80
53 57 57 56 59 58 58 66 75 82 91 98 100 98 99 102 103 99 82 73 71 76 76 77 76 80 87 89 92 90 98 114 107 93 67 65 82 84 85 77 71 53 59
53 54 53 53 58 69 82 90 87 78 85 91 98 94 87 82 74 67 63 61 74 81 80 80 77 79 72 66 67 73 91 93 93 106 102 78 66 65 60 51 57 61 61
49 52 57 68 81 76 71 75 84 89 77 68 71 70 69 66 62 57 54 58 67 73 74 71 67 66 63 55 52 66 81 85 87 76 85 73 78 74 65 52 60 64 62
55 64 75 80 70 75 84 75 63 64 65 67 68 67 64 61 56 54 50 47 46 51 58 61 62 61 62 61 64 64 50 52 65 63 66 63 65 65 59 52 59 59 49
73 77 74 76 84 66 61 63 61 59 62 66 64 66 63 58 57 56 52 49 53 58 55 55 53 59 56 59 57 51 45 52 63 69 51 64 58 68 68 60 52 48 49
79 81 78 74 67 63 58 54 57 59 62 64 62 61 59 56 59 60 57 54 48 43 48 52 57 55 47 48 44 47 42 36 53 47 39 44 47 50 56 59 47 43 40
75 74 68 65 62 58 53 53 54 56 54 53 54 56 57 58 61 57 58 59 48 51 54 56 50 41 38 37 38 28 23 26 36 43 50 49 50 49 49 45 52 48 45
72 66 63 59 55 53 54 58 55 52 44 46 46 48 50 58 61 53 51 51 50 55 62 61 48 35 33 32 28 35 37 43 48 46 54 54 49 45 42 53 43 41 42
59 58 55 51 51 51 52 54 60 52 51 54 54 47 46 66 62 52 49 48 44 38 44 44 43 34 27 29 37 39 47 43 47 45 36 37 40 34 39 34 33 65 51
51 48 47 46 46 47 47 51 54 61 69 70 57 45 52 59 49 40 36 35 35 33 36 36 35 30 37 38 30 44 44 40 39 37 37 36 33 46 48 45 51 68 67
48 45 42 43 43 43 46 50 55 56 57 59 54 46 51 55 36 31 25 24 24 20 19 20 24 32 35 31 32 32 35 37 40 36 37 40 42 49 45 41 59 81 76
42 38 40 44 44 43 44 49 53 52 53 54 49 44 50 54 29 30 32 24 15 6 6 24 24 28 34 38 32 36 30 31 34 33 33 31 38 40 42 59 61 52 50
41 41 42 43 42 40 42 48 48 47 48 50 45 37 37 43 27 28 31 23 1 9 11 23 29 27 19 30 38 29 23 28 28 33 32 34 41 47 51 54 43 55 53
40 43 45 44 43 42 42 43 44 44 42 45 42 35 35 29 28 27 25 16 2 2 12 19 24 28 28 17 8 6 12 16 23 30 34 41 48 59 62 62 71 56 46
48 46 47 46 45 43 42 43 43 42 41 40 36 33 33 27 26 28 14 14 7 6 16 17 21 28 20 7 5 2 12 19 23 24 32 53 59 69 52 35 37 57 42
51 52 56 55 53 51 49 47 47 44 42 38 33 27 27 23 26 25 18 4 4 8 5 19 19 20 15 14 19 13 14 21 25 38 51 40 42 57 50 50 36 60 57
66 64 63 64 65 63 60 57 53 50 44 40 34 26 17 20 19 21 21 5 12 6 7 20 28 30 21 10 10 9 16 8 29 57 65 65 58 44 35 50 39 46 45
69 71 71 71 71 72 72 69 64 57 51 45 37 29 21 18 20 16 12 6 16 8 6 10 23 24 24 21 11 19 29 11 38 39 35 10 36 45 44 52 55 42 38
Wind_Direction_500mb
326 321 316 308 302 291 284 287 286 282 280 278 276 274 274 274 266 258 259 259 257 256 261 262 260 260 261 260 263 265 265 268 275 276 274 277 282 284 289 289 283 288 294
310 310 307 303 300 293 292 290 287 281 278 277 276 274 274 272 267 264 267 266 263 263 260 260 261 259 258 259 262 263 262 262 265 274 277 278 282 293 293 285 288 294 286
303 301 294 294 291 291 289 287 286 287 286 284 281 275 271 267 266 267 268 268 268 269 270 268 266 264 262 260 255 259 262 265 268 268 269 265 273 276 278 282 291 289 281
300 300 297 297 295 295 297 299 297 293 289 286 281 279 276 273 271 272 271 270 269 269 267 266 268 267 266 267 263 259 258 259 259 262 268 271 275 283 284 282 277 293 293
299 296 296 298 299 297 294 292 291 291 290 289 288 284 279 279 279 280 276 271 269 267 264 262 260 261 260 261 266 262 260 259 258 257 260 263 265 269 269 265 275 281 283
298 299 298 298 298 299 296 294 294 293 290 286 283 282 280 280 279 272 269 270 271 273 274 270 268 264 260 258 258 259 266 262 260 255 256 254 252 258 271 284 285 287 293
297 297 299 299 299 298 297 296 295 293 290 287 286 285 278 270 265 264 264 267 271 274 276 275 274 272 270 266 263 259 261 260 258 260 256 253 255 258 266 273 279 282 285
298 299 300 300 299 299 299 298 296 288 283 281 280 276 274 272 274 278 279 279 277 276 275 274 275 273 271 271 267 259 258 255 254 253 254 255 257 261 261 266 273 275 281
301 300 300 300 300 300 293 285 281 281 281 282 283 284 282 285 284 284 282 280 280 282 284 280 279 278 275 275 271 267 265 257 251 253 255 262 256 257 258 262 268 267 278
302 299 296 290 288 286 286 290 293 292 289 291 290 289 289 290 290 289 285 278 278 282 285 285 285 284 281 274 269 269 262 261 260 255 259 261 254 246 258 245 256 264 273
294 288 287 289 295 298 292 291 295 295 295 299 302 303 301 299 298 295 290 280 277 281 283 284 286 285 285 280 273 261 265 266 263 261 246 248 244 245 251 250 254 259 264
293 293 294 300 299 299 302 301 303 308 307 307 307 306 305 307 304 301 295 286 283 279 279 282 288 292 284 275 276 266 268 266 254 252 243 248 244 239 241 249 250 254 254
296 301 304 302 307 306 309 311 309 310 310 312 310 308 307 308 306 304 301 291 284 279 274 278 278 287 278 274 270 253 274 261 246 241 240 241 246 241 241 247 253 250 238
305 305 309 311 317 317 313 312 313 313 312 311 309 308 308 308 305 307 303 293 288 274 273 266 279 286 278 272 260 251 279 233 226 234 237 231 233 239 245 241 241 225 223
308 312 317 316 316 317 317 318 317 316 315 312 309 305 301 304 308 301 292 283 275 270 270 275 279 283 284 270 245 241 238 221 227 233 237 241 235 231 240 225 216 219 226
315 319 319 320 322 322 323 322 322 325 327 323 317 314 310 314 313 301 292 285 276 267 268 269 270 274 273 264 250 238 240 247 243 248 237 233 235 231 224 200 197 197 212
319 321 323 323 322 324 326 326 327 331 328 327 327 324 322 322 313 298 290 282 273 267 262 260 254 257 271 273 259 256 255 254 237 241 241 239 222 207 214 199 202 177 162
325 325 324 325 328 329 329 331 333 331 331 332 335 332 332 322 315 306 296 283 273 262 256 247 245 244 256 285 282 266 263 247 235 238 226 217 214 201 190 208 197 180 176
329 330 331 330 330 330 333 334 335 330 328 330 334 340 337 334 335 339 321 295 287 274 253 245 256 272 273 270 277 275 248 238 236 231 226 225 217 197 190 190 182 171 176
337 338 338 334 332 334 336 331 329 332 334 335 336 341 340 336 346 344 344 331 302 196 256 265 272 305 304 298 293 288 267 223 230 227 224 218 209 202 194 193 191 194 188
345 346 346 342 339 337 331 330 333 334 336 339 339 339 345 336 346 351 342 339 147 325 296 313 316 338 308 299 290 274 239 235 220 205 220 206 202 204 201 194 207 207 200
1 357 353 350 347 344 343 344 344 344 343 344 345 348 348 344 340 346 354 348 338 238 350 322 1 356 330 318 189 270 272 236 224 219 206 182 186 190 195 188 196 180 172
17 10 8 4 360 358 356 355 354 353 351 351 352 355 356 358 356 350 357 10 344 351 328 340 21 5 359 331 44 257 149 112 157 164 186 178 178 185 191 170 183 168 168
25 22 18 15 14 12 8 3 0 357 356 354 358 0 358 358 358 352 345 291 312 289 310 40 54 2 358 25 92 97 123 103 133 145 171 175 197 198 230 192 161 162 166
31 30 26 25 23 19 16 12 7 4 1 1 356 358 343 344 350 3 1 330 290 260 116 61 41 35 34 25 33 58 184 138 154 161 170 186 212 239 158 160 157 156 159
28 29 30 28 26 25 23 18 13 8 4 360 359 353 347 329 341 346 15 33 338 299 290 11 45 38 46 12 19 116 157 180 166 212 260 175 132 141 158 157 155 142 155
Wind_Speed_850mb
12 15 17 25 26 26 31 34 34 38 42 45 48 50 53 52 54 63 68 71 71 70 66 68 71 70 69 65 64 63 65 65 66 55 49 55 59 66 72 60 63 59 52
16 20 23 27 28 32 38 41 42 45 48 51 52 53 54 56 55 58 63 70 77 83 86 87 85 80 81 79 83 85 82 77 75 84 75 68 62 51 43 44 46 60 63
23 27 31 34 38 42 45 48 51 55 57 58 59 60 62 63 65 64 65 69 71 72 77 82 87 85 84 82 86 81 73 71 73 74 69 49 57 61 71 76 71 49 53
31 37 41 44 48 53 57 56 54 53 55 56 58 61 61 62 62 63 65 68 71 74 74 74 72 76 88 91 89 86 90 88 87 84 83 80 75 74 63 60 52 50 51
39 43 46 51 52 53 56 59 62 63 65 65 67 67 67 67 66 65 67 73 77 80 80 80 77 70 73 72 75 87 90 87 83 78 78 71 68 71 61 43 48 54 62
45 50 51 56 58 57 59 61 62 62 59 58 60 63 67 68 66 73 80 85 87 88 92 97 98 96 91 86 81 76 78 86 86 82 76 71 68 56 54 51 51 60 73
49 52 55 56 58 58 58 57 57 58 61 66 70 68 67 70 76 83 88 92 96 99 102 104 105 102 98 92 97 91 76 72 81 94 96 86 79 82 82 66 61 66 79
53 55 56 57 58 58 61 63 63 65 69 77 81 84 85 93 102 101 95 99 103 104 104 105 104 107 106 106 104 104 97 94 78 67 77 99 99 93 82 72 72 71 80
53 57 57 56 59 58 58 66 75 82 91 98 100 98 99 102 103 99 82 73 71 76 76 77 76 80 87 89 92 90 98 114 107 93 67 65 82 84 85 77 71 53 59
53 54 53 53 58 69 82 90 87 78 85 91 98 94 87 82 74 67 63 61 74 81 80 80 77 79 72 66 67 73 91 93 93 106 102 78 66 65 60 51 57 61 61
49 52 57 68 81 76 71 75 84 89 77 68 71 70 69 66 62 57 54 58 67 73 74 71 67 66 63 55 52 66 81 85 87 76 85 73 78 74 65 52 60 64 62
55 64 75 80 70 75 84 75 63 64 65 67 68 67 64 61 56 54 50 47 46 51 58 61 62 61 62 61 64 64 50 52 65 63 66 63 65 65 59 52 59 59 49
73 77 74 76 84 66 61 63 61 59 62 66 64 66 63 58 57 56 52 49 53 58 55 55 53 59 56 59 57 51 45 52 63 69 51 64 58 68 68 60 52 48 49
79 81 78 74 67 63 58 54 57 59 62 64 62 61 59 56 59 60 57 54 48 43 48 52 57 55 47 48 44 47 42 36 53 47 39 44 47 50 56 59 47 43 40
75 74 68 65 62 58 53 53 54 56 54 53 54 56 57 58 61 57 58 59 48 51 54 56 50 41 38 37 38 28 23 26 36 43 50 49 50 49 49 45 52 48 45
72 66 63 59 55 53 54 58 55 52 44 46 46 48 50 58 61 53 51 51 50 55 62 61 48 35 33 32 28 35 37 43 48 46 54 54 49 45 42 53 43 41 42
59 58 55 51 51 51 52 54 60 52 51 54 54 47 46 66 62 52 49 48 44 38 44 44 43 34 27 29 37 39 47 43 47 45 36 37 40 34 39 34 33 65 51
51 48 47 46 46 47 47 51 54 61 69 70 57 45 52 59 49 40 36 35 35 33 36 36 35 30 37 38 30 44 44 40 39 37 37 36 33 46 48 45 51 68 67
48 45 42 43 43 43 46 50 55 56 57 59 54 46 51 55 36 31 25 24 24 20 19 20 24 32 35 31 32 32 35 37 40 36 37 40 42 49 45 41 59 81 76
42 38 40 44 44 43 44 49 53 52 53 54 49 44 50 54 29 30 32 24 15 6 6 24 24 28 34 38 32 36 30 31 34 33 33 31 38 40 42 59 61 52 50
41 41 42 43 42 40 42 48 48 47 48 50 45 37 37 43 27 28 31 23 1 9 11 23 29 27 19 30 38 29 23 28 28 33 32 34 41 47 51 54 43 55 53
40 43 45 44 43 42 42 43 44 44 42 45 42 35 35 29 28 27 25 16 2 2 12 19 24 28 28 17 8 6 12 16 23 30 34 41 48 59 62 62 71 56 46
48 46 47 46 45 43 42 43 43 42 41 40 36 33 33 27 26 28 14 14 7 6 16 17 21 28 20 7 5 2 12 19 23 24 32 53 59 69 52 35 37 57 42
51 52 56 55 53 51 49 47 47 44 42 38 33 27 27 23 26 25 18 4 4 8 5 19 19 20 15 14 19 13 14 21 25 38 51 40 42 57 50 50 36 60 57
66 64 63 64 65 63 60 57 53 50 44 40 34 26 17 20 19 21 21 5 12 6 7 20 28 30 21 10 10 9 16 8 29 57 65 65 58 44 35 50 39 46 45
69 71 71 71 71 72 72 69 64 57 51 45 37 29 21 18 20 16 12 6 16 8 6 10 23 24 24 21 11 19 29 11 38 39 35 10 36 45 44 52 55 42 38
Wind_Direction_850mb
326 321 316 308 302 291 284 287 286 282 280 278 276 274 274 274 266 258 259 259 257 256 261 262 260 260 261 260 263 265 265 268 275 276 274 277 282 284 289 289 283 288 294
310 310 307 303 300 293 292 290 287 281 278 277 276 274 274 272 267 264 267 266 263 263 260 260 261 259 258 259 262 263 262 262 265 274 277 278 282 293 293 285 288 294 286
303 301 294 294 291 291 289 287 286 287 286 284 281 275 271 267 266 267 268 268 268 269 270 268 266 264 262 260 255 259 262 265 268 268 269 265 273 276 278 282 291 289 281
300 300 297 297 295 295 297 299 297 293 289 286 281 279 276 273 271 272 271 270 269 269 267 266 268 267 266 267 263 259 258 259 259 262 268 271 275 283 284 282 277 293 293
299 296 296 298 299 297 294 292 291 291 290 289 288 284 279 279 279 280 276 271 269 267 264 262 260 261 260 261 266 262 260 259 258 257 260 263 265 269 269 265 275 281 283
298 299 298 298 298 299 296 294 294 293 290 286 283 282 280 280 279 272 269 270 271 273 274 270 268 264 260 258 258 259 266 262 260 255 256 254 252 258 271 284 285 287 293
297 297 299 299 299 298 297 296 295 293 290 287 286 285 278 270 265 264 264 267 271 274 276 275 274 272 270 266 263 259 261 260 258 260 256 253 255 258 266 273 279 282 285
298 299 300 300 299 299 299 298 296 288 283 281 280 276 274 272 274 278 279 279 277 276 275 274 275 273 271 271 267 259 258 255 254 253 254 255 257 261 261 266 273 275 281
301 300 300 300 300 300 293 285 281 281 281 282 283 284 282 285 284 284 282 280 280 282 284 280 279 278 275 275 271 267 265 257 251 253 255 262 256 257 258 262 268 267 278
302 299 296 290 288 286 286 290 293 292 289 291 290 289 289 290 290 289 285 278 278 282 285 285 285 284 281 274 269 269 262 261 260 255 259 261 254 246 258 245 256 264 273
294 288 287 289 295 298 292 291 295 295 295 299 302 303 301 299 298 295 290 280 277 281 283 284 286 285 285 280 273 261 265 266 263 261 246 248 244 245 251 250 254 259 264
293 293 294 300 299 299 302 301 303 308 307 307 307 306 305 307 304 301 295 286 283 279 279 282 288 292 284 275 276 266 268 266 254 252 243 248 244 239 241 249 250 254 254
296 301 304 302 307 306 309 311 309 310 310 312 310 308 307 308 306 304 301 291 284 279 274 278 278 287 278 274 270 253 274 261 246 241 240 241 246 241 241 247 253 250 238
305 305 309 311 317 317 313 312 313 313 312 311 309 308 308 308 305 307 303 293 288 274 273 266 279 286 278 272 260 251 279 233 226 234 237 231 233 239 245 241 241 225 223
308 312 317 316 316 317 317 318 317 316 315 312 309 305 301 304 308 301 292 283 275 270 270 275 279 283 284 270 245 241 238 221 227 233 237 241 235 231 240 225 216 219 226
315 319 319 320 322 322 323 322 322 325 327 323 317 314 310 314 313 301 292 285 276 267 268 269 270 274 273 264 250 238 240 247 243 248 237 233 235 231 224 200 197 197 212
319 321 323 323 322 324 326 326 327 331 328 327 327 324 322 322 313 298 290 282 273 267 262 260 254 257 271 273 259 256 255 254 237 241 241 239 222 207 214 199 202 177 162
325 325 324 325 328 329 329 331 333 331 331 332 335 332 332 322 315 306 296 283 273 262 256 247 245 244 256 285 282 266 263 247 235 238 226 217 214 201 190 208 197 180 176
329 330 331 330 330 330 333 334 335 330 328 330 334 340 337 334 335 339 321 295 287 274 253 245 256 272 273 270 277 275 248 238 236 231 226 225 217 197 190 190 182 171 176
337 338 338 334 332 334 336 331 329 332 334 335 336 341 340 336 346 344 344 331 302 196 256 265 272 305 304 298 293 288 267 223 230 227 224 218 209 202 194 193 191 194 188
345 346 346 342 339 337 331 330 333 334 336 339 339 339 345 336 346 351 342 339 147 325 296 313 316 338 308 299 290 274 239 235 220 205 220 206 202 204 201 194 207 207 200
1 357 353 350 347 344 343 344 344 344 343 344 345 348 348 344 340 346 354 348 338 238 350 322 1 356 330 318 189 270 272 236 224 219 206 182 186 190 195 188 196 180 172
17 10 8 4 360 358 356 355 354 353 351 351 352 355 356 358 356 350 357 10 344 351 328 340 21 5 359 331 44 257 149 112 157 164 186 178 178 185 191 170 183 168 168
25 22 18 15 14 12 8 3 0 357 356 354 358 0 358 358 358 352 345 291 312 289 310 40 54 2 358 25 92 97 123 103 133 145 171 175 197 198 230 192 161 162 166
31 30 26 25 23 19 16 12 7 4 1 1 356 358 343 344 350 3 1 330 290 260 116 61 41 35 34 25 33 58 184 138 154 161 170 186 212 239 158 160 157 156 159
28 29 30 28 26 25 23 18 13 8 4 360 359 353 347 329 341 346 15 33 338 299 290 11 45 38 46 12 19 116 157 180 166 212 260 175 132 141 158 157 155 142 155